Location: Bruderhein
(53.8035°N, 112.9265°W)
Time: 02:02:43
(UTC+00:00)

STRAND 1 - Pass Details

Date: 05 April 2023
Orbit: 767 x 779 km, 98.4° (Epoch: 31 May)

Event Time Altitude Azimuth Distance (km) Brightness Sun altitude
Rises 04:28:40 0° 7° (N) 3,255 ? -18.7°
Reaches altitude 10° 04:31:41 10° 349° (N) 2,322 ? -19.0°
Maximum altitude 04:34:57 17° 309° (NW) 1,853 ? -19.4°
Drops below altitude 10° 04:38:13 10° 269° (W) 2,313 ? -19.7°
Sets 04:41:13 0° 250° (WSW) 3,236 ? -20.1°
